Location: Peterborough
(44.3091°N, 78.3197°W)
Time: 02:38:34
(UTC-04:00)

Vanguard 1 Rocket - Pass Details

Date: 15 December 2023
Orbit: 650 x 4219 km, 34.3° (Epoch: 19 July)

Event Time Altitude Azimuth Distance (km) Brightness Sun altitude
Exits shadow 02:09:01 48° 145° (SE) 4,773 10.7 -57.6°
Drops below altitude 10° 02:26:56 10° 88° (E) 6,012 11.9 -54.7°
Sets 02:30:56 0° 83° (E) 6,636 12.3 -54.1°
